Weather History for Ironwood, MI

Change the Weather History Date:

Tuesday, January 28, 2014

  Actual Average Record
Temperature  
Mean Temperature -8 °F -  
Max Temperature 1 °F 22 °F 42 °F (2008)
Min Temperature -18 °F 8 °F -18 °F (2014)
Degree Days  
Heating Degree Days 74    
Moisture  
Dew Point -17 °F    
Average Humidity 66    
Maximum Humidity 84    
Minimum Humidity 51    
Precipitation  
Precipitation 0.00 in - - ()
Sea Level Pressure  
Sea Level Pressure 29.97 in    
Wind  
Wind Speed 16 mph (WSW)    
Max Wind Speed 23 mph    
Max Gust Speed 31 mph    
Visibility 9 miles    
Events      
Averages and records for this station are not official NWS values.
T = Trace of Precipitation, MM = Missing Value Source: NWS Daily Summary

Daily Weather History Graph

Daily Weather History Graph

Search for Another Location

Airport:

Trip Planner

Search our weather history database for the weather conditions in past years. The results will help you decide how hot, cold, wet, or windy it might be!

Date:

Astronomy

Jan. 28, 2014 Rise Set
Actual Time 7:28 AM CST 4:58 PM CST
Civil Twilight 6:56 AM CST 5:31 PM CST
Nautical Twilight 6:19 AM CST 6:07 PM CST
Astronomical Twilight 5:44 AM CST 6:43 PM CST
Moon 5:12 AM CST (1/28) 2:46 PM CST (1/28)
Length of Visible Light 10h 35m
Length of Day
9h 29m
Waning Crescent, 7% of the Moon is Illuminated
Jan 28
Waning Crescent
Jan 30
New
Feb 6
First Quarter
Feb 14
Full
Feb 22
Last Quarter

Hourly Weather History & Observations

Time (CST) Temp. Windchill Dew Point Humidity Pressure Visibility Wind Dir Wind Speed Gust Speed Precip Events Conditions
12:15 AM -13.0 °F -36.8 °F -20.2 °F 70% 30.11 in 10.0 mi WSW 16.1 mph - N/A   Mostly Cloudy
12:35 AM -13.0 °F -35.2 °F -22.0 °F 64% 30.11 in 10.0 mi WSW 13.8 mph - N/A   Partly Cloudy
12:55 AM -13.0 °F -36.8 °F -20.2 °F 70% 30.11 in 10.0 mi WSW 16.1 mph - N/A   Clear
1:15 AM -14.8 °F -38.3 °F -20.2 °F 77% 30.10 in 10.0 mi WSW 15.0 mph 23.0 mph N/A   Clear
1:35 AM -14.8 °F -37.5 °F -23.8 °F 64% 30.10 in 10.0 mi WSW 13.8 mph - N/A   Clear
1:55 AM -14.8 °F -36.6 °F -22.0 °F 70% 30.10 in 10.0 mi West 12.7 mph - N/A   Clear
2:15 AM -14.8 °F -37.5 °F -22.0 °F 70% 30.10 in 10.0 mi West 13.8 mph 20.7 mph N/A   Clear
2:35 AM -14.8 °F -39.8 °F -23.8 °F 64% 30.09 in 10.0 mi WSW 17.3 mph 23.0 mph N/A   Clear
2:55 AM -16.6 °F -40.6 °F -23.8 °F 70% 30.09 in 10.0 mi WSW 15.0 mph - N/A   Clear
3:15 AM -16.6 °F -39.8 °F -22.0 °F 76% 30.09 in 10.0 mi West 13.8 mph - N/A   Clear
3:35 AM -16.6 °F -41.4 °F -23.8 °F 70% 30.08 in 10.0 mi WSW 16.1 mph - N/A   Clear
3:55 AM -16.6 °F -38.9 °F -23.8 °F 70% 30.08 in 10.0 mi WSW 12.7 mph - N/A   Clear
4:15 AM -16.6 °F -39.8 °F -23.8 °F 70% 30.08 in 10.0 mi WSW 13.8 mph 18.4 mph N/A   Clear
4:35 AM -16.6 °F -36.8 °F -23.8 °F 70% 30.09 in 10.0 mi WSW 10.4 mph - N/A   Clear
4:55 AM -16.6 °F -37.9 °F -23.8 °F 70% 30.09 in 10.0 mi WSW 11.5 mph - N/A   Clear
5:15 AM -18.4 °F -41.2 °F -25.6 °F 70% 30.07 in 10.0 mi WSW 12.7 mph - N/A   Clear
5:35 AM -18.4 °F -40.2 °F -23.8 °F 76% 30.07 in 10.0 mi WSW 11.5 mph - N/A   Clear
5:55 AM -18.4 °F -40.2 °F -22.0 °F 84% 30.07 in 10.0 mi WSW 11.5 mph - N/A   Clear
6:15 AM -18.4 °F -40.2 °F -25.6 °F 70% 30.06 in 10.0 mi WSW 11.5 mph - N/A   Clear
6:35 AM -18.4 °F -41.2 °F -23.8 °F 76% 30.06 in 10.0 mi WSW 12.7 mph - N/A   Clear
6:55 AM -18.4 °F -42.9 °F -23.8 °F 76% 30.06 in 10.0 mi WSW 15.0 mph - N/A   Clear
7:15 AM -18.4 °F -42.1 °F -23.8 °F 76% 30.05 in 10.0 mi WSW 13.8 mph - N/A   Clear
7:35 AM -18.4 °F -40.2 °F -25.6 °F 70% 30.06 in 10.0 mi WSW 11.5 mph - N/A   Clear
7:55 AM -18.4 °F -43.7 °F -23.8 °F 76% 30.04 in 10.0 mi WSW 16.1 mph 20.7 mph N/A   Clear
8:15 AM -16.6 °F -40.6 °F -20.2 °F 84% 30.04 in 10.0 mi WSW 15.0 mph 21.9 mph N/A   Clear
8:35 AM -16.6 °F -40.6 °F -23.8 °F 70% 30.04 in 10.0 mi WSW 15.0 mph 19.6 mph N/A   Clear
8:55 AM -14.8 °F -39.8 °F -20.2 °F 77% 30.05 in 10.0 mi WSW 17.3 mph 21.9 mph N/A   Clear
9:15 AM -14.8 °F -38.3 °F -18.4 °F 84% 30.04 in 10.0 mi WSW 15.0 mph 21.9 mph N/A   Clear
9:35 AM -13.0 °F -37.5 °F -23.8 °F 59% 30.04 in 10.0 mi WSW 17.3 mph 23.0 mph N/A   Clear
9:55 AM -13.0 °F -38.2 °F -18.4 °F 77% 30.04 in 10.0 mi WSW 18.4 mph 23.0 mph N/A   Clear
10:15 AM -11.2 °F -36.4 °F -18.4 °F 70% 30.04 in 10.0 mi West 19.6 mph 24.2 mph N/A   Clear
10:35 AM -11.2 °F -37.6 °F -18.4 °F 70% 30.03 in 5.0 mi West 21.9 mph 27.6 mph N/A   Clear
10:55 AM -9.4 °F -35.8 °F -16.6 °F 71% 30.02 in 5.0 mi West 23.0 mph 28.8 mph N/A   Clear
11:15 AM -9.4 °F -33.5 °F -18.4 °F 65% 30.02 in 6.0 mi West 18.4 mph 24.2 mph N/A   Clear
11:35 AM -9.4 °F -34.7 °F -16.6 °F 71% 30.01 in 7.0 mi WSW 20.7 mph 24.2 mph N/A   Clear
11:55 AM -7.6 °F -31.7 °F -16.6 °F 65% 30.00 in 0.5 mi West 19.6 mph - N/A   Unknown
12:15 PM -7.6 °F -31.7 °F -16.6 °F 65% 29.98 in 6.0 mi West 19.6 mph 25.3 mph N/A   Clear
12:35 PM -7.6 °F -31.7 °F -16.6 °F 65% 29.97 in 10.0 mi West 19.6 mph 23.0 mph N/A   Clear
12:55 PM -5.8 °F -28.2 °F -14.8 °F 65% 29.96 in 10.0 mi West 17.3 mph - N/A   Clear
1:15 PM -5.8 °F -29.4 °F -16.6 °F 60% 29.94 in 9.0 mi WSW 19.6 mph 23.0 mph N/A   Clear
1:35 PM -4.0 °F -27.0 °F -13.0 °F 65% 29.93 in 6.0 mi WSW 19.6 mph - N/A   Clear
1:55 PM -4.0 °F -27.6 °F -14.8 °F 60% 29.92 in 8.0 mi WSW 20.7 mph 26.5 mph N/A   Clear
2:15 PM -2.2 °F -22.9 °F -14.8 °F 55% 29.92 in 10.0 mi West 16.1 mph 20.7 mph N/A   Clear
2:35 PM -2.2 °F -22.2 °F -13.0 °F 60% 29.91 in 10.0 mi WSW 15.0 mph - N/A   Clear
2:55 PM -2.2 °F -22.9 °F -13.0 °F 60% 29.90 in 10.0 mi West 16.1 mph 23.0 mph N/A   Scattered Clouds
3:15 PM -2.2 °F -23.5 °F -14.8 °F 55% 29.90 in 7.0 mi WSW 17.3 mph 26.5 mph N/A   Overcast
3:35 PM -0.4 °F -20.5 °F -14.8 °F 51% 29.90 in 5.0 mi WSW 16.1 mph - N/A   Overcast
3:55 PM -2.2 °F -23.5 °F -11.2 °F 66% 29.90 in 8.0 mi WSW 17.3 mph 20.7 mph N/A   Mostly Cloudy
4:15 PM -2.2 °F -23.5 °F -14.8 °F 55% 29.90 in 10.0 mi WSW 17.3 mph 24.2 mph N/A   Scattered Clouds
4:35 PM -2.2 °F -21.5 °F -14.8 °F 55% 29.90 in 10.0 mi WSW 13.8 mph - N/A   Overcast
4:55 PM -2.2 °F -21.5 °F -14.8 °F 55% 29.89 in 10.0 mi WSW 13.8 mph - N/A   Overcast
5:15 PM -2.2 °F -23.5 °F -14.8 °F 55% 29.89 in 10.0 mi WSW 17.3 mph 21.9 mph N/A   Overcast
5:35 PM -2.2 °F -23.5 °F -14.8 °F 55% 29.89 in 10.0 mi SW 17.3 mph 21.9 mph N/A   Overcast
5:55 PM -2.2 °F -22.9 °F -14.8 °F 55% 29.88 in 10.0 mi WSW 16.1 mph 25.3 mph N/A   Overcast
6:15 PM -2.2 °F -24.1 °F -14.8 °F 55% 29.88 in 9.0 mi WSW 18.4 mph 26.5 mph N/A   Overcast
6:35 PM -2.2 °F -22.9 °F -14.8 °F 55% 29.87 in 10.0 mi WSW 16.1 mph 25.3 mph N/A   Overcast
6:55 PM -2.2 °F -23.5 °F -14.8 °F 55% 29.86 in 10.0 mi SW 17.3 mph - N/A   Overcast
7:15 PM -2.2 °F -23.5 °F -11.2 °F 66% 29.85 in 7.0 mi WSW 17.3 mph 28.8 mph N/A   Overcast
7:35 PM -2.2 °F -23.5 °F -14.8 °F 55% 29.85 in 10.0 mi WSW 17.3 mph 20.7 mph N/A   Overcast
7:55 PM -2.2 °F -23.5 °F -11.2 °F 66% 29.85 in 8.0 mi SW 17.3 mph 27.6 mph N/A   Overcast
8:15 PM -2.2 °F -25.2 °F -14.8 °F 55% 29.84 in 7.0 mi WSW 20.7 mph 29.9 mph N/A   Overcast
8:35 PM -2.2 °F -25.7 °F -9.4 °F 71% 29.83 in 7.0 mi WSW 21.9 mph 27.6 mph N/A   Overcast
8:55 PM -2.2 °F -24.1 °F -11.2 °F 66% 29.84 in 8.0 mi WSW 18.4 mph 25.3 mph N/A   Overcast
9:15 PM -2.2 °F -24.7 °F - N/A% 29.83 in 9.0 mi WSW 19.6 mph 29.9 mph N/A   Overcast
9:35 PM -0.4 °F -22.8 °F -11.2 °F 60% 29.83 in 9.0 mi WSW 20.7 mph 27.6 mph N/A   Overcast
9:55 PM -0.4 °F -21.7 °F -11.2 °F 60% 29.82 in 10.0 mi WSW 18.4 mph 26.5 mph N/A   Overcast
10:15 PM -0.4 °F -21.2 °F -7.6 °F 72% 29.81 in 10.0 mi WSW 17.3 mph 24.2 mph N/A   Overcast
10:35 PM 1.4 °F -19.4 °F -7.6 °F 66% 29.80 in 10.0 mi WSW 18.4 mph 24.2 mph N/A   Mostly Cloudy
10:55 PM 1.4 °F -19.9 °F -5.8 °F 72% 29.80 in 10.0 mi WSW 19.6 mph - N/A   Mostly Cloudy
11:15 PM 1.4 °F -21.4 °F -7.6 °F 66% 29.80 in 10.0 mi WSW 23.0 mph 31.1 mph N/A   Overcast
11:35 PM 1.4 °F -19.9 °F -7.6 °F 66% 29.80 in 7.0 mi WSW 19.6 mph 28.8 mph N/A   Overcast
11:55 PM 1.4 °F -19.9 °F -9.4 °F 61% 29.79 in 10.0 mi WSW 19.6 mph 26.5 mph N/A   Overcast